Regional Weather Roundup
Issued by NWS

Home | Current Version | Previous Version | Text Only | Print | Product List | Glossary Off
Versions: 1 2 3 4 5 6 7 8 9 10 11 12 13 14 15 16 17 18 19 20 21 22 23 24 25 26 27 28 29 30 31 32 33 34 35 36 37 38 39 40 41 42 43 44 45 46 47 48 49 50

000
ASUS43 KTOP 050208
RWRKS

WEATHER ROUNDUP FOR KANSAS
NATIONAL WEATHER SERVICE GOODLAND KS
900 PM CDT TUE AUG 04 2015

NOTE:  "FAIR" INDICATES FEW OR NO CLOUDS BELOW 12,000 FEET WITH NO
SIGNIFICANT WEATHER AND/OR OBSTRUCTIONS TO VISIBILITY.

KSZ001>006-013>018-027>032-041>047-050300-
NORTHWEST KANSAS

CITY           SKY/WX    TMP DP  RH WIND       PRES   REMARKS
GOODLAND       PTCLDY    71  64  78 SE6       30.01R
HAYS           CLOUDY    75  61  60 NE15      29.95R
HILL CITY      CLOUDY    67  65  93 E6        29.96R
RUSSELL        CLOUDY    71  66  84 E12       29.95R
$$

KSZ061>065-074>080-084>089-050300-
SOUTHWEST KANSAS

CITY           SKY/WX    TMP DP  RH WIND       PRES   REMARKS
DODGE CITY     LGT RAIN  75  69  81 S10       29.95R
ELKHART          N/A     78  64  61 S9          N/A
GARDEN CITY    MOCLDY    75  61  61 E10       29.94R
GREAT BEND     CLOUDY    81  66  61 S13       29.92S
LIBERAL        PTCLDY    84  64  51 S7        29.92R
PRATT          PTCLDY    77  68  73 E6        29.98R
$$

KSZ066>073-081>083-090>101-050300-
SOUTHEAST KANSAS

CITY           SKY/WX    TMP DP  RH WIND       PRES   REMARKS
CHANUTE        LGT RAIN  72  69  90 E7        29.97S
COFFEYVILLE    CLOUDY    75  71  87 E5        29.95R
HUTCHINSON     PTCLDY    77  69  76 SE10      29.95R
MEDICINE LODGE   N/A     78  72  81 E9        29.93R
NEWTON         MOCLDY    75  64  69 SE6       29.99R
PARSONS        LGT RAIN  75  72  90 CALM      29.98R
WICHITA INTL   CLOUDY    79  70  74 SE7       29.96R
WICHITA JABRA  MOCLDY    77  70  79 SE5       29.97R
WICHITA MCCONL MOCLDY    78  69  73 E3        29.97R
$$

KSZ007>012-019>026-033>040-048>060-102>105-050300-
NORTHEAST KANSAS

CITY           SKY/WX    TMP DP  RH WIND       PRES   REMARKS
CONCORDIA      LGT RAIN  66  64  93 E9        29.92F
EMPORIA        MOCLDY    73  66  78 SE12      29.96R
LAWRENCE       CLOUDY    71  69  93 S5        29.94F
MANHATTAN      MOCLDY    74  72  93 NE5       29.95R
MARYSVILLE     CLOUDY    72  70  94 S5        29.96R
OLATHE IND     CLOUDY    72  70  93 E6        29.96F
OLATHE EXE     CLOUDY    70  69  97 SE6       29.95F FOG
SALINA         CLOUDY    79  70  74 E7        29.95R
TOPEKA BILLARD CLOUDY    72  70  93 SE5       29.95S
TOPEKA FORBES  CLOUDY    73  70  90 E5        29.95S
$$


USA.gov is the U.S. government's official web portal to all federal, state and local government web resources and services.